[[{"header":{"parameterUnit":"m.s-1","parameterCategory":1,"la1":30.2991,"la2":30.254,"lo1":-89.0895,"lo2":-89.0444,"dx":0.0017,"dy":0.0017,"nx":28,"ny":28,"refTime":"2023-01-20T09:00:00:Z","depth":0,"parameterNumber":2,"parameterNumberName":"U-component_of_WINDS"},"data":[0,0,0,0,0,0,0,0,0,0,0,0,0,0,0,0,0,0,0,0,0,0,0,0,0,0,0,0,0,0,0,0,0,0,0,0,0,0,0,0,0,0,0,0,0,0,0,0,0,0,0,0,0,0,0,0,0,0,-1.896,-1.896,0,-1.8941,-1.8941,-1.894,-1.8975,-1.8976,-1.8977,-1.8978,-1.8956,-1.8955,-1.8953,0,0,0,0,0,0,0,0,0,0,0,0,0,-1.902,-1.9018,-1.896,-1.896,-1.8959,-1.8941,-1.8941,-1.894,-1.8975,-1.8976,-1.8977,-1.8979,-1.8957,-1.8955,-1.8953,0,0,0,0,0,0,0,0,0,0,0,0,0,-1.8996,-1.9018,-1.896,-1.8974,-1.8975,-1.8941,-1.8941,-1.894,-1.8974,-1.8976,-1.8978,-1.8979,-1.8958,-1.8955,-1.8953,-1.8903,0,0,-1.8945,-1.8944,0,0,0,0,0,0,0,0,-1.8998,-1.8994,-1.8972,-1.8973,-1.8974,-1.8962,-1.8954,-1.8927,-1.8974,-1.8975,-1.8978,-1.898,-1.8957,-1.8954,-1.8947,-1.8901,-1.8901,-1.8945,-1.8943,-1.8942,-1.8942,0,0,0,0,0,0,0,-1.8999,-1.8995,-1.8952,-1.8972,-1.8973,-1.898,-1.8978,-1.8949,-1.8956,-1.8975,-1.8977,-1.8975,-1.8958,-1.8949,-1.8947,-1.89,-1.8945,-1.8943,-1.8941,-1.894,-1.8804,-1.8802,0,0,0,0,0,0,-1.9,-1.8996,-1.8953,-1.8952,-1.8991,-1.8977,-1.8976,-1.8964,-1.8957,-1.8957,-1.8973,-1.8976,-1.8953,-1.895,-1.8946,-1.8881,-1.8942,-1.894,-1.8939,-1.8806,-1.8804,-1.8801,0,0,0,0,0,0,-1.9001,-1.8995,-1.8954,-1.8974,-1.897,-1.8974,-1.8961,-1.8963,-1.8955,-1.8955,-1.8956,-1.8964,-1.8954,-1.895,-1.8911,-1.888,-1.8939,-1.8937,-1.8809,-1.8806,-1.8803,-1.8753,0,0,0,0,0,0,-1.9002,-1.8996,-1.8978,-1.8974,-1.8968,-1.8921,-1.8959,-1.8961,-1.895,-1.8954,-1.8947,-1.8947,-1.8955,-1.8915,-1.8909,-1.8878,-1.8935,-1.8812,-1.8807,-1.8804,-1.8757,-1.8748,-1.8741,0,0,0,0,0,-1.9004,-1.8967,-1.8977,-1.8972,-1.8947,-1.8919,-1.8916,-1.8927,-1.8948,-1.8929,-1.8928,-1.8947,-1.8886,-1.8911,-1.8904,-1.8872,-1.8813,-1.8809,-1.8804,-1.8761,-1.875,-1.8741,0,0,0,0,0,0,-1.8968,-1.8966,-1.8978,-1.8939,-1.8928,-1.8925,-1.8902,-1.8916,-1.89,-1.8904,-1.8917,-1.8915,-1.8872,-1.8869,-1.8897,-1.8819,-1.8853,-1.8846,-1.8822,-1.8812,-1.8804,-1.8804,-1.8933,0,0,0,0,0,-1.8955,-1.8934,-1.8934,-1.8898,-1.8892,-1.8898,-1.8886,-1.8895,-1.8885,-1.8881,-1.8878,-1.8866,-1.8843,-1.8829,-1.8809,-1.8758,-1.8753,-1.8732,-1.8724,-1.8718,-1.871,-1.8676,-1.8664,-1.8786,-1.8786,-1.8786,0,0,-1.8929,-1.8925,-1.8911,-1.889,-1.8884,-1.8858,-1.8894,-1.8868,-1.8848,-1.8877,-1.8838,-1.8836,-1.8823,-1.8777,-1.8756,-1.8773,-1.8676,-1.8712,-1.8706,-1.8703,-1.867,-1.8658,-1.8648,-1.8783,-1.8783,-1.8784,0,0,-1.8866,-1.8864,-1.8831,-1.8823,-1.8812,-1.8815,-1.8806,-1.88,-1.8798,-1.8761,-1.8779,-1.8756,-1.8719,-1.8706,-1.8695,-1.8622,-1.8636,-1.8616,-1.8571,-1.8537,-1.8528,-1.8519,-1.8486,-1.8475,-1.861,-1.861,-1.861,0,-1.8834,-1.8799,-1.8812,-1.8782,-1.8769,-1.8794,-1.8757,-1.8749,-1.8731,-1.8721,-1.874,-1.8689,-1.8683,-1.863,-1.8612,-1.8605,-1.8591,-1.8615,-1.8529,-1.852,-1.8512,-1.8481,-1.8469,-1.8607,-1.8607,-1.8607,-1.8608,0,-1.8756,-1.8731,-1.8705,-1.8686,-1.8671,-1.8638,-1.8643,-1.8626,-1.8635,-1.8635,-1.8592,-1.8585,-1.856,-1.855,-1.856,-1.8496,-1.8506,-1.8527,-1.856,-1.8497,-1.8467,-1.8456,-1.8602,-1.8604,-1.8604,-1.8605,0,0,-1.8672,-1.8657,-1.8646,-1.8635,-1.8622,-1.8601,-1.8567,-1.8543,-1.8524,-1.8511,-1.8479,-1.8444,-1.8461,-1.8449,-1.8457,-1.8428,-1.8361,-1.8451,-1.8451,-1.8429,-1.8282,-1.8262,-1.8248,-1.8372,-1.837,-1.8368,-1.8281,0,-1.8605,-1.8546,-1.8555,-1.8497,-1.8469,-1.849,-1.8459,-1.8446,-1.8444,-1.8418,-1.8416,-1.8388,-1.8417,-1.8408,-1.838,-1.8375,-1.8331,-1.8382,-1.8337,-1.8335,-1.8333,-1.8234,-1.8214,-1.8132,-1.827,-1.8268,-1.8267,0,-1.852,-1.85,-1.8439,-1.8424,-1.8412,-1.8385,-1.8359,-1.8337,-1.832,-1.8319,-1.8302,-1.8314,-1.8275,-1.8311,-1.8254,-1.8289,-1.8271,-1.8265,-1.8262,-1.8254,-1.8293,-1.8217,-1.8107,-1.8092,-1.825,-1.8251,-1.8253,0,-1.8455,-1.8414,-1.837,-1.8361,-1.8344,-1.8323,-1.8315,-1.83,-1.8282,-1.826,-1.8247,-1.8221,-1.8204,-1.8182,-1.8183,-1.8211,-1.8123,-1.8162,-1.8117,-1.8116,-1.8094,-1.8094,-1.7973,-1.8092,-1.8092,-1.8093,-1.8093,0,-1.8377,-1.8337,-1.834,-1.8313,-1.8267,-1.8276,-1.8229,-1.8223,-1.8208,-1.8177,-1.8195,-1.8164,-1.8171,-1.814,-1.8141,-1.8089,-1.8084,-1.8079,-1.8078,-1.8074,-1.8073,-1.8058,-1.8061,-1.8089,-1.809,-1.8091,-1.8091,0,-1.8297,-1.8298,-1.825,-1.8237,-1.8232,-1.8198,-1.8185,-1.8157,-1.8155,-1.8114,-1.8105,-1.8101,-1.8064,-1.8065,-1.8024,-1.8024,-1.7958,-1.7968,-1.7963,-1.7963,-1.7915,-1.7916,-1.7775,-1.7753,-1.7893,-1.7892,-1.789,0,-1.8244,-1.8213,-1.8195,-1.8175,-1.8165,-1.8133,-1.8114,-1.812,-1.8099,-1.8073,-1.8046,-1.8011,-1.7983,-1.7922,-1.7913,-1.788,-1.7885,-1.7837,-1.788,-1.7873,-1.7875,-1.7874,-1.7867,-1.7827,-1.7826,-1.7825,-1.7824,0,-1.8148,-1.8149,-1.8121,-1.8091,-1.8067,-1.8045,-1.8023,-1.8005,-1.8008,-1.7983,-1.7944,-1.7922,-1.7877,-1.7839,-1.7806,-1.7794,-1.7806,-1.781,-1.7797,-1.7789,-1.7784,-1.7778,-1.7933,-1.7813,-1.7814,-1.7815,-1.7815,-1.7816,-1.8076,-1.8046,-1.8027,-1.7993,-1.7977,-1.7955,-1.7925,-1.7918,-1.7887,-1.785,-1.7856,-1.781,-1.7788,-1.7744,-1.7729,-1.7691,-1.7707,-1.769,-1.7684,-1.7678,-1.7668,-1.7795,-1.7686,-1.7686,-1.7687,-1.7687,-1.7687,0,-1.7975,-1.7962,-1.7931,-1.7899,-1.7871,-1.7887,-1.7862,-1.7836,-1.7796,-1.7775,-1.7745,-1.7696,-1.7658,-1.7645,-1.7606,-1.7578,-1.7582,-1.7567,-1.7566,-1.7561,-1.7661,-1.7672,-1.7564,-1.7564,-1.7564,-1.7564,-1.7564,-1.7564,-1.7919,-1.7867,-1.7864,-1.7802,-1.779,-1.7746,-1.7729,-1.7706,-1.7688,-1.7633,-1.7601,-1.7593,-1.7572,-1.7531,-1.7494,-1.7491,-1.7472,-1.7453,-1.7451,-1.7543,-1.7555,-1.7567,-1.7578,-1.7451,-1.7451,-1.7354,-1.7353,-1.7353]},{"header":{"parameterUnit":"m.s-1","parameterCategory":1,"la1":30.2991,"la2":30.254,"lo1":-89.0895,"lo2":-89.0444,"dx":0.0017,"dy":0.0017,"nx":28,"ny":28,"refTime":"2023-01-20T09:00:00:Z","depth":0,"parameterNumber":3,"parameterNumberName":"V-component_of_WINDS"},"data":[0,0,0,0,0,0,0,0,0,0,0,0,0,0,0,0,0,0,0,0,0,0,0,0,0,0,0,0,0,0,0,0,0,0,0,0,0,0,0,0,0,0,0,0,0,0,0,0,0,0,0,0,0,0,0,0,0,0,1.5258,1.5259,0,1.5383,1.5384,1.5386,1.5353,1.5351,1.5348,1.5346,1.5478,1.5483,1.5489,0,0,0,0,0,0,0,0,0,0,0,0,0,1.4996,1.5001,1.5258,1.5259,1.5261,1.5383,1.5385,1.5386,1.5354,1.5351,1.5348,1.5345,1.5476,1.5483,1.549,0,0,0,0,0,0,0,0,0,0,0,0,0,1.5114,1.5003,1.5257,1.5259,1.5261,1.5382,1.5385,1.5387,1.5354,1.5351,1.5347,1.5344,1.5473,1.5482,1.549,1.5619,0,0,1.5517,1.5521,0,0,0,0,0,0,0,0,1.5108,1.5124,1.5257,1.5259,1.5261,1.5349,1.534,1.5465,1.5355,1.5319,1.5346,1.5342,1.5438,1.5449,1.5481,1.5625,1.5631,1.5518,1.5523,1.5527,1.5529,0,0,0,0,0,0,0,1.51,1.5119,1.5307,1.5259,1.5262,1.5256,1.5268,1.5364,1.5398,1.5322,1.532,1.5335,1.5438,1.5473,1.5484,1.5633,1.5518,1.5525,1.5531,1.5534,1.5895,1.5899,0,0,0,0,0,0,1.5089,1.5112,1.5303,1.5311,1.5174,1.5264,1.5278,1.5324,1.5397,1.5404,1.5338,1.5333,1.546,1.5474,1.5488,1.5649,1.5527,1.5535,1.554,1.5891,1.5896,1.5901,0,0,0,0,0,0,1.5084,1.5107,1.5298,1.5211,1.5235,1.5272,1.5325,1.5329,1.5363,1.5409,1.5415,1.5367,1.5457,1.5476,1.5588,1.5653,1.5539,1.5547,1.5886,1.5893,1.5899,1.5967,0,0,0,0,0,0,1.5076,1.5105,1.5152,1.5212,1.524,1.5394,1.5328,1.5334,1.5378,1.5373,1.5438,1.5445,1.5456,1.5575,1.5597,1.5663,1.5554,1.588,1.5889,1.5897,1.5959,1.5975,1.5988,0,0,0,0,0,1.5067,1.5166,1.5155,1.5178,1.53,1.5398,1.5414,1.5424,1.5383,1.5433,1.5463,1.5443,1.5641,1.5587,1.5611,1.568,1.5876,1.5886,1.5896,1.5953,1.5972,1.5988,0,0,0,0,0,0,1.5113,1.5174,1.5162,1.5283,1.5336,1.5392,1.5455,1.5443,1.5508,1.5501,1.5511,1.5526,1.5642,1.5671,1.561,1.5812,1.5753,1.5768,1.5788,1.5807,1.5821,1.5813,1.5561,0,0,0,0,0,1.5137,1.521,1.5259,1.5361,1.5388,1.5417,1.546,1.5464,1.5519,1.5541,1.5579,1.5635,1.571,1.576,1.5831,1.5962,1.5979,1.6022,1.6037,1.6049,1.6063,1.614,1.6162,1.5933,1.5933,1.5933,0,0,1.5187,1.523,1.5275,1.5372,1.5413,1.5491,1.5436,1.552,1.5579,1.5554,1.5663,1.5693,1.5756,1.588,1.5936,1.5909,1.613,1.6061,1.607,1.6078,1.6153,1.6174,1.6194,1.594,1.5939,1.5938,0,0,1.532,1.5357,1.5449,1.5492,1.5555,1.5575,1.5597,1.5656,1.5676,1.5785,1.577,1.5841,1.5969,1.6016,1.6057,1.6212,1.6198,1.6235,1.6313,1.6389,1.6407,1.6423,1.6483,1.6504,1.6248,1.6248,1.6249,0,1.5376,1.5491,1.5498,1.5585,1.563,1.5611,1.5706,1.5748,1.5832,1.5864,1.5831,1.5996,1.6036,1.6174,1.6212,1.6244,1.6273,1.6229,1.6403,1.6419,1.6435,1.6493,1.6515,1.6253,1.6252,1.6252,1.6251,0,1.5559,1.564,1.5706,1.5789,1.5841,1.5931,1.5955,1.6007,1.6007,1.603,1.6145,1.6193,1.6277,1.6309,1.6308,1.6448,1.643,1.64,1.6342,1.6461,1.6516,1.6538,1.6259,1.6258,1.6256,1.6255,0,0,1.5724,1.5811,1.5836,1.5875,1.5945,1.6009,1.61,1.6182,1.6229,1.6288,1.6368,1.6479,1.6453,1.65,1.6505,1.657,1.6697,1.6533,1.6535,1.6566,1.686,1.6886,1.6911,1.6687,1.6691,1.6694,1.6857,0,1.5867,1.6027,1.6038,1.6184,1.6261,1.6246,1.6326,1.638,1.6405,1.6476,1.6504,1.6585,1.6542,1.6571,1.6635,1.6668,1.6757,1.6656,1.6765,1.6769,1.6754,1.6938,1.6964,1.7115,1.6878,1.6881,1.6884,0,1.6054,1.6121,1.6275,1.6339,1.6372,1.6443,1.6522,1.6589,1.6651,1.6665,1.6719,1.6716,1.6813,1.675,1.6887,1.6818,1.6864,1.6887,1.6893,1.6907,1.6836,1.6962,1.7163,1.7187,1.6917,1.6914,1.6912,0,1.6166,1.6293,1.6403,1.6437,1.6512,1.6564,1.6599,1.6656,1.6706,1.6775,1.6809,1.6888,1.6932,1.6995,1.7015,1.6966,1.7153,1.709,1.7172,1.7172,1.7214,1.7212,1.743,1.7236,1.7236,1.7235,1.7235,0,1.6327,1.6423,1.6455,1.6523,1.6632,1.6645,1.6753,1.6784,1.6836,1.6913,1.6903,1.6975,1.6995,1.7072,1.7088,1.7203,1.7221,1.7239,1.7243,1.7242,1.7241,1.7275,1.7266,1.7241,1.724,1.7239,1.7238,0,1.6471,1.6495,1.6615,1.6678,1.6696,1.6774,1.6829,1.6896,1.692,1.7018,1.7041,1.7081,1.7171,1.7196,1.7304,1.7315,1.7452,1.7443,1.7431,1.7433,1.7514,1.7508,1.7765,1.7802,1.758,1.7582,1.7583,0,1.6573,1.6648,1.6719,1.6769,1.6806,1.6887,1.6939,1.6954,1.7009,1.7088,1.7147,1.7236,1.7309,1.7454,1.7494,1.7578,1.7575,1.7659,1.7588,1.7587,1.7583,1.758,1.759,1.7674,1.7676,1.7678,1.768,0,1.6756,1.6765,1.6839,1.692,1.6982,1.7046,1.7107,1.715,1.7175,1.7237,1.733,1.7387,1.7498,1.7589,1.7675,1.7712,1.7703,1.7702,1.7726,1.7728,1.772,1.7731,1.7473,1.7697,1.7695,1.7694,1.7693,1.7692,1.6886,1.6953,1.7015,1.71,1.7148,1.7206,1.7275,1.7308,1.7385,1.7478,1.7482,1.7585,1.7649,1.7763,1.7806,1.7888,1.7863,1.7897,1.7906,1.7916,1.7925,1.7704,1.7903,1.7902,1.7902,1.7901,1.7901,0,1.7072,1.7111,1.7189,1.7276,1.7344,1.7327,1.7395,1.7454,1.7544,1.7604,1.7677,1.7786,1.7875,1.7922,1.8011,1.8068,1.8066,1.8092,1.809,1.81,1.7939,1.7912,1.8092,1.8092,1.8092,1.8092,1.8092,1.8092,1.7177,1.7291,1.7309,1.7449,1.7488,1.7588,1.763,1.7685,1.7734,1.7856,1.793,1.796,1.8017,1.8111,1.8193,1.8205,1.8241,1.827,1.828,1.813,1.811,1.8092,1.8066,1.8276,1.8276,1.8434,1.8435,1.8436]}]]